BREEZE-M DEB, 39324

Orbit data source: Space-Track

BREEZE-M DEB, 39324 is space debris in HEO originally from a launch on Fri, 14 Mar 2008 UTC launched from the Tyuratam Missile And Space Complex (TTMTR). Debris objects in space refer to the collection of defunct objects orbiting the Earth. Examples of debris include non-operational satellites, rocket bodies, and fragments generated from explosions, collisions, or faulty payload assembly.

Loading next visibility...
Identifier
39324, 2008-011DB
Orbit
HEO
Country
Flag of CISCIS
Related business
Manufacturer
Unknown
Mission
Spacecraft
Bus & Motor
Unknown
Mass
Unknown
Launch date (UTC)
2008-03-14 (18 years ago)
Launch vehicle
Unknown
Launch site
Tyuratam Missile And Space Complex (TTMTR)
Object type
Payload
Rocket body
Debris
Shape & HBR
Unknown shape, 1.1 m
Radar Cross Section
Medium (>0.1 m² and <1 m²)

Expand to show TLE details & history
Last TLE update: 2 weeks ago

TLE from 2 weeks ago
0 BREEZE-M DEB
1 39324U 08011DB  26160.48430628 -.00001347  00000-0 -34961-2 0  9993
2 39324  48.4336 240.5208 5001975  29.4321 356.3975  5.30525993  1875
Epoch: 2026-06-09T11:37Z
TLE epoch observation values (Epoch: 2026-06-09T11:37:24.062Z)
Latitude
12.66456°
Longitude
179.74247°
Altitude
613.673 km
Speed
9.238 km/s
True Right ascension
16h 47m 47s
True Declination
12° 35' 23"
Sunlit
Object was in full shadow at epoch
Visualization orbit readout
Latitude
Unknown
Longitude
Unknown
Altitude
Unknown
Speed
Unknown
Apparent Right ascension
Unknown
Apparent Declination
Unknown
Sunlit
N/A
Visualization observer readout
Local Sidereal Time
00:39:28
Azimuth
Unknown
Elevation
Unknown
Doppler factor
Unknown
Orbital elements
Apogee altitude
14,455.764 km
Perigee altitude
562.84 km
Semi-major axis
13,887.439 km
Eccentricity
0.5002
Inclination
48.4336°
RAAN
240.5208°
Arg. of periapsis
29.4321°
True anomaly
347.57756°
Mean anomaly
356.3975°
Eccentric anomaly
352.81102°
Mean motion
1.3262 °/min
Orbital period
271.45 mins
BSTAR
-0.0034961
Loading maneuver chart data...
Computing Atmospheric mass density...
Loading historical data...
Loading historical data...
Loading historical data...
Loading historical data...
Loading historical data...
Loading historical data...
Loading historical data...

Documentation

Showing up to 5 results
|